Flag for Germany Weather past 2 weeks in Radolfzell am Bodensee, Baden-Württemberg, Germany

Now
69 °F

Overcast.


Feels Like: 69 °F
Forecast: 45 / 64 °F
Wind: 3 mph from West

Location: Konstanz

Current Time: Sep 4, 2015 at 6:51:32 PM

Latest Report: Sep 4, 2015 at 6:00 PM


Visibility: 44 mi

Pressure: 29.92 "Hg

Humidity: 40%

Dew point: 43 °F

Location of Radolfzell am BodenseeLocation

Historic Weather in Radolfzell am Bodensee — Graph

°F

Radolfzell am Bodensee temperature yesterday

Maximum temperature yesterday: 65 °F (at 3:00 PM)
Minimum temperature yesterday: 57 °F (at 7:00 AM)
Average temperature yesterday: 62 °F

Past Weeks' High & Low Weather Summary

 TemperatureHumidityPressure
High92 °F (Aug 29, 5:00 PM)97% (Aug 21, 6:00 AM)30.27 "Hg (Aug 21, 6:00 AM)
Low53 °F (Aug 26, 7:00 AM)27% (Aug 31, 4:00 PM)29.70 "Hg (Aug 24, 8:00 AM)
Average68 °F68%30.00 "Hg
* Reported Aug 20 5:00 PM — Sep 4 5:00 PM, Radolfzell am Bodensee, Weather by CustomWeather, © 2015

Note: Actual official high and low records may vary slightly from our data, if they occured in-between our weather recording intervals... More about our weather records

Advertising

Radolfzell am Bodensee weather history for previous 24 hours

 ConditionsComfort  
Time TempWeatherWind HumidityBarometerVisibility
5:00 PM
Fri, Sep 4
69 °FScattered clouds.3 mph41%29.92 "Hg37 mi
4:00 PM68 °FScattered clouds.3 mph41%29.94 "Hg37 mi
3:00 PM68 °FPassing clouds.5 mph41%29.96 "Hg34 mi
2:00 PM68 °FPassing clouds.3 mph41%29.97 "Hg31 mi
1:00 PM64 °FPassing clouds.1 mph65%30.00 "Hg28 mi
12:00 PM63 °FPartly sunny.2 mph69%30.01 "Hg28 mi
11:00 AM63 °FPassing clouds.1 mph66%30.02 "Hg25 mi
10:00 AM61 °FPassing clouds.1 mph74%30.02 "Hg22 mi
9:00 AM58 °FPassing clouds.1 mph81%30.03 "Hg19 mi
8:00 AM55 °FPassing clouds.2 mph87%30.03 "Hg19 mi
7:00 AM53 °FPassing clouds.1 mph92%30.02 "Hg17 mi
5:00 AM56 °FLight rain. Overcast.5 mph88%30.03 "Hg7 mi
4:00 AM57 °FOvercast.1 mph92%30.01 "Hg12 mi
3:00 AM57 °FOvercast.1 mph87%30.01 "Hg22 mi
2:00 AM58 °FPassing clouds.1 mph89%30.01 "Hg22 mi
1:00 AM58 °FOvercast.1 mph89%30.01 "Hg19 mi
11:00 PM
Thu, Sep 3
61 °FOvercast.1 mph76%29.99 "Hg31 mi
10:00 PM61 °FOvercast.1 mph70%29.98 "Hg43 mi
9:00 PM62 °FOvercast.3 mph66%29.96 "Hg22 mi
8:00 PM63 °FOvercast.3 mph72%29.94 "Hg25 mi
7:00 PM64 °FOvercast.2 mph69%29.93 "Hg25 mi
6:00 PM64 °FOvercast.3 mph70%29.94 "Hg25 mi
Weather by CustomWeather, © 2015

See weather overviewHow to use our weather pages